TimeHST,TemperatureF,Dew PointF,Humidity,Sea Level PressureIn,VisibilityMPH,Wind Direction,Wind SpeedMPH,Gust SpeedMPH,PrecipitationIn,Events,Conditions,WindDirDegrees,DateUTC
12:20 AM,78.8,68.0,69,29.94,10.0,WSW,4.6,-,N/A,,Mostly Cloudy,240,2012-10-22 10:20:00
12:53 AM,77.0,69.1,76,29.94,10.0,ESE,4.6,-,N/A,Rain,Rain,120,2012-10-22 10:53:00
1:53 AM,75.9,70.0,82,29.93,10.0,ENE,4.6,-,N/A,,Overcast,70,2012-10-22 11:53:00
2:09 AM,75.2,69.8,83,29.92,10.0,ENE,4.6,-,0.00,Rain,Light Rain,60,2012-10-22 12:09:00
2:53 AM,75.9,69.1,79,29.92,10.0,East,4.6,-,0.00,,Mostly Cloudy,80,2012-10-22 12:53:00
3:53 AM,75.0,66.9,76,29.92,10.0,East,3.5,-,N/A,,Partly Cloudy,90,2012-10-22 13:53:00
4:53 AM,75.0,66.9,76,29.92,10.0,East,3.5,-,N/A,,Mostly Cloudy,90,2012-10-22 14:53:00
5:53 AM,75.9,66.9,74,29.94,10.0,ESE,4.6,-,N/A,,Mostly Cloudy,120,2012-10-22 15:53:00
6:53 AM,75.9,66.9,74,29.95,10.0,East,3.5,-,N/A,,Partly Cloudy,100,2012-10-22 16:53:00
7:43 AM,78.8,68.0,69,29.96,10.0,Calm,Calm,-,N/A,,Overcast,0,2012-10-22 17:43:00
7:53 AM,78.1,69.1,74,29.97,10.0,Calm,Calm,-,N/A,,Overcast,0,2012-10-22 17:53:00
8:18 AM,78.8,68.0,69,29.97,10.0,ESE,3.5,-,N/A,,Overcast,110,2012-10-22 18:18:00
8:53 AM,80.1,66.9,64,29.98,10.0,SSW,3.5,-,N/A,,Partly Cloudy,200,2012-10-22 18:53:00
9:53 AM,80.1,66.9,64,29.99,10.0,NNW,3.5,-,N/A,,Mostly Cloudy,340,2012-10-22 19:53:00
10:53 AM,84.0,68.0,58,29.97,10.0,West,10.4,-,N/A,,Clear,280,2012-10-22 20:53:00
11:53 AM,84.9,66.9,55,29.95,10.0,West,12.7,-,N/A,,Partly Cloudy,280,2012-10-22 21:53:00
12:53 PM,86.0,66.0,51,29.92,10.0,West,10.4,-,N/A,,Scattered Clouds,270,2012-10-22 22:53:00
1:53 PM,84.0,66.0,55,29.89,10.0,West,8.1,-,N/A,,Scattered Clouds,280,2012-10-22 23:53:00
2:53 PM,84.0,66.0,55,29.87,10.0,West,6.9,-,N/A,,Clear,280,2012-10-23 00:53:00
3:53 PM,82.9,64.9,54,29.86,10.0,West,5.8,-,N/A,,Clear,260,2012-10-23 01:53:00
4:53 PM,82.0,64.9,56,29.88,10.0,SW,4.6,-,N/A,,Clear,230,2012-10-23 02:53:00
5:53 PM,81.0,64.9,58,29.89,10.0,SSW,4.6,-,N/A,,Clear,200,2012-10-23 03:53:00
6:53 PM,81.0,66.0,60,29.91,10.0,South,8.1,-,N/A,,Clear,170,2012-10-23 04:53:00
7:53 PM,81.0,66.9,62,29.93,10.0,South,9.2,-,N/A,,Clear,180,2012-10-23 05:53:00
8:53 PM,80.1,66.9,64,29.95,10.0,SE,6.9,-,N/A,,Scattered Clouds,130,2012-10-23 06:53:00
9:53 PM,78.1,66.0,66,29.95,10.0,East,6.9,-,N/A,,Clear,80,2012-10-23 07:53:00
10:53 PM,75.9,66.0,71,29.94,10.0,ENE,4.6,-,N/A,,Clear,60,2012-10-23 08:53:00
11:53 PM,75.0,64.9,71,29.94,10.0,ENE,3.5,-,N/A,,Clear,70,2012-10-23 09:53:00